Flag Weather past 2 weeks in Pasco, Washington, U.S.A.

Now
40 °F

Fog.


Feels Like: 38 °F
Forecast: 46 / 61 °F
Wind: 3 mph from East

Location: Tri-Cities Airport

Current Time: Nov 27, 2014 at 12:47:16 AM

Latest Report: Nov 26, 2014 at 11:53 PM


Visibility: 0 mi

Pressure: 29.98 "Hg

Humidity: 100%

Dew point: 40 °F

Location of PascoLocation

Historic Weather in Pasco — Graph

°F

Pasco temperature yesterday

Maximum temperature yesterday: 44 °F (at 1:53 PM)
Minimum temperature yesterday: 39 °F (at 5:53 AM)
Average temperature yesterday: 41 °F

Past Weeks' High & Low Weather Summary

 TemperatureHumidityPressure
High57 °F (Nov 25, 6:53 AM)100% (Nov 16, 7:53 PM)30.77 "Hg (Nov 16, 7:53 PM)
Low11 °F (Nov 15, 4:53 AM)31% (Nov 12, 2:53 PM)29.44 "Hg (Nov 21, 8:53 PM)
Average31 °F84%30.28 "Hg
* Reported Nov 11 10:53 PM — Nov 26 10:53 PM, Pasco, Weather by CustomWeather, © 2014

Note: Actual official high and low records may vary slightly from our data, if they occured in-between our weather recording intervals... More about our weather records

Advertising

Pasco weather history for previous 24 hours

 ConditionsComfort  
Time TempWeatherWind HumidityBarometerVisibility
10:53 PM
Nov 26
41 °FFog.3 mph100%30.00 "Hg0 mi
9:53 PM41 °FFog.No wind100%30.02 "Hg1 mi
8:53 PM41 °FFog.No wind100%30.03 "Hg1 mi
7:53 PM42 °FFog.No wind100%30.04 "Hg1 mi
6:53 PM42 °FFog.6 mph100%30.08 "Hg1 mi
6:00 PM42 °FFog.5 mph100%30.08 "Hg1 mi
4:53 PM42 °FFog.5 mph100%30.10 "Hg2 mi
3:53 PM43 °FFog.6 mph100%30.12 "Hg2 mi
2:53 PM44 °FFog.6 mph96%30.13 "Hg2 mi
1:53 PM44 °FFog.No wind96%30.13 "Hg2 mi
12:53 PM43 °FFog.6 mph100%30.16 "Hg2 mi
12:03 PM42 °FFog.7 mph100%30.17 "Hg1 mi
11:53 AM42 °FFog.7 mph100%30.18 "Hg2 mi
10:53 AM41 °FFog.5 mph100%30.20 "Hg1 mi
9:53 AM40 °FFog.3 mph100%30.22 "Hg1 mi
8:53 AM39 °FFog.5 mph100%30.22 "Hg1 mi
8:02 AM39 °FFog.No wind100%30.20 "Hg1 mi
7:53 AM39 °FFog.No wind100%30.20 "Hg1 mi
6:53 AM40 °FFog.No wind100%30.21 "Hg1 mi
6:04 AM39 °FFog.3 mph100%30.19 "Hg1 mi
5:53 AM39 °FFog.5 mph100%30.21 "Hg2 mi
4:53 AM40 °FFog.5 mph100%30.22 "Hg1 mi
3:53 AM40 °FFog.No wind100%30.21 "Hg1 mi
2:53 AM41 °FLow clouds.No wind96%30.22 "Hg10 mi
1:53 AM41 °FLow clouds.No wind93%30.23 "Hg10 mi
12:53 AM41 °FLow clouds.No wind96%30.23 "Hg10 mi
Weather by CustomWeather, © 2014

See weather overviewHow to use our weather pages